www.pogodaiklimat.ru

Погода и климат >> Архив погоды >> Монголия >> Баянхонгор


ПОГОДА в Баянхонгоре

  • Прогноз погоды в Баянхонгоре
  • Монитор погоды в Баянхонгоре

АРХИВ ПОГОДЫ в Баянхонгоре

Время (UTC), дата Ветер
(напр.,м/с)
 
Видим.   Явления Облачность Т
(С)
Тd
(С)
f
(%)
Тe
(С)
Тes
(С)
Комфортность P
(гПа)
Po
(гПа)
Тmin
(С)
Tmax
(С)
R
(мм)
R24
(мм)
S
(см)
12 14.08 С 4 50 км 5/5 1000 м
[Cu med, cong]
+23.1 -0.4 21 +22 +22 комфорт 999.3 806.6 +24.7
15 14.08 ЮЗ 4 н/о 3/0 2000 м
[Ac lent]
+16.9 +2.1 37 +17 +17 1005.6 808.0
18 14.08 СЗ 3 50 км 3/0 2000 м
[Ac lent]
+14.4 -1.7 33 +14 +14 1009.1 809.2
21 14.08 С 4 50 км 4/4 600 м
[Cu Sc]
+13.2 +0.2 41 +12 +12 1012.0 810.9
00 15.08 З 7 50 км 5/0 2000 м
[Ac lent Ci sp]
+13.9 +2.5 46 +12 +12 1012.4 811.5 +10.6
03 15.08 СЗ 6 50 км 8/1 1000 м
[Cu hum Cs]
+16.7 -1.9 28 +16 +19 1011.9 812.9
06 15.08 ЮВ 3 50 км 8/1 1000 м
[Cu hum Cs]
+19.5 0.0 27 +20 +29 1009.0 812.3
09 15.08 Ю 3 50 км 9/0 2000 м
[Ac lent Cs]
+20.9 -1.6 22 +21 +25 комфорт 1007.0 811.6
12 15.08 Ю 4 50 км 5/0 2000 м
[Ac lent Ci fib]
+19.2 -1.3 25 +19 +19 1008.4 811.6 +21.8
15 15.08 Ю 7 н/о 5/0
[Cs]
+12.6 +2.4 50 +10 +10 1015.3 813.1
18 15.08 Ю 1 н/о 8/0 2000 м
[Ac cast Cc]
+9.8 +3.5 65 +10 +10 1018.0 813.5
21 15.08 З 2 н/о 8/0 2000 м
[As trans Cs]
+8.4 +3.6 72 +7 +7 1019.2 813.5
00 16.08 СЗ 4 50 км 8/0 2000 м
[Ac lent Ci ing]
+10.1 +2.7 60 +8 +9 1016.9 812.8 +6.9
03 16.08 Ю 2 50 км 8/1 1000 м
[Cu hum Cs]
+16.5 +3.2 41 +17 +25 1011.7 812.6
06 16.08 ЮЗ 2 50 км 8/1 1000 м
[Cu hum Cs]
+20.5 +1.4 28 +21 +33 комфорт 1006.9 811.2
09 16.08 З 5 50 км 8/3 1000 м
[Cu hum Cs]
+23.2 +2.1 25 +23 +25 комфорт 1003.3 809.9
12 16.08 З 5 50 км 9/5 600 м
[Sc Ac lent Ci fib]
+20.3 +2.6 31 +21 +21 комфорт 1005.4 809.7 +23.7
15 16.08 З 2 н/о слаб. дождь 10/0 600 м
[As op]
+17.6 +8.6 56 +18 +18 1007.7 810.3
18 16.08 СЗ 1 н/о {дождь} 9/9 600 м
[Sc]
+15.3 +11.8 80 +16 +16 1009.2 809.9
21 16.08 С 2 н/о 5/4 600 м
[Sc Ci fib]
+13.2 +9.6 79 +13 +13 1009.8 810.0
00 17.08 СВ 3 50 км 1/0 2000 м
[Ac lent]
+13.9 +6.0 59 +13 +14 1011.0 810.3 +11.2 0.0
03 17.08 С 3 50 км 3/3 1000 м
[Cu med, cong]
+21.7 +5.6 35 +22 +29 комфорт 1004.1 809.7
06 17.08 СВ 7
{11}
50 км 5/5 1000 м
[Cu med, cong]
+23.0 +0.4 22 +22 +24 комфорт 1010.7 809.7
09 17.08 З 6 50 км 5/5 1000 м
[Cu med, cong]
+24.7 -5.1 13 +22 +24 комфорт 999.3 807.8
12 17.08 СЗ 4 50 км 6/4 600 м
[Sc Ac trans]
+23.2 +6.3 34 +24 +24 комфорт 1000.8 808.1 +26.0
15 17.08 СЗ 3 н/о 4/3 600 м
[Sc Ac lent]
+18.0 +6.5 47 +18 +18 1006.5 809.6
18 17.08 СЗ 2 50 км 3/0 2000 м
[Ac lent]
+17.0 +6.4 50 +17 +17 1007.4 809.7
21 17.08 ЮВ 3 н/о 6/6 600 м
[Cb cap]
+16.4 +6.3 51 +16 +16 1008.9 810.6
00 18.08 СВ 2 50 км {ливн. осадки} 9/6 600 м
[Sc Ac trans]
+15.2 +7.4 60 +15 +16 1010.2 810.9 +16.3 0.0
03 18.08 Ю 2 50 км 8/3 1000 м
[Cu med, cong Ac trans Ci fib]
+19.4 +5.8 41 +21 +26 комфорт 1008.3 811.7
06 18.08 Ю 2 50 км 9/9 600 м
[Sc]
+21.2 +2.5 29 +21 +23 комфорт 1005.7 810.7
09 18.08 Ю 6 50 км 9/6 600 м
[Sc Ac As]
+22.1 +2.8 28 +22 +22 комфорт 1003.0 809.0
12 18.08 Ю 7 50 км 10/10 600 м
[Sc]
+20.4 +3.6 33 +21 +21 комфорт 1004.6 809.3 +23.0
15 18.08 Ю 7 н/о {дождь} 10/10 600 м
[Sc]
+18.5 +5.0 41 +18 +18 1006.2 809.5
18 18.08 З 3 н/о {дождь} 10/10 600 м
[Sc]
+17.1 +6.0 48 +17 +17 1007.6 809.7
21 18.08 С 1 н/о 10/10 600 м
[Sc]
+14.9 +9.1 68 +15 +15 1008.6 809.1
00 19.08 ЮЗ 1 50 км 9/9 600 м
[Sc]
+14.3 +9.7 74 +15 +15 1009.6 809.6 +13.6 0.0
03 19.08 СЗ 5 50 км 8/6 1000 м
[Cu med, cong Ci]
+19.3 +6.4 43 +20 +22 1005.4 809.3
06 19.08 З 7
{12}
50 км 8/6 1000 м
[Cu med, cong Ci fib]
+21.8 -0.2 23 +21 +23 комфорт 1002.5 808.4
09 19.08 СЗ 10
{14}
50 км {ливн. осадки} 5/5 1000 м
[Cu med, cong]
+19.9 +1.4 29 +19 +19 1003.8 808.4
12 19.08 З 7
{13}
50 км {ливн. осадки} 4/4 1000 м
[Cu med, cong]
+17.4 +0.5 32 +16 +16 1007.3 809.6 +22.7 0.0
15 19.08 СЗ 3 50 км ясно +12.6 +2.4 50 +11 +11 1014.3 812.3
18 19.08 СЗ 5 50 км ясно +9.7 +0.8 54 +7 +7 1017.8 813.3
21 19.08 СЗ 4 50 км ясно +9.0 -0.9 50 +7 +7 1019.0 813.7
00 20.08 С 4 50 км ясно +10.4 -0.4 47 +8 +9 1019.3 814.9 +6.2
03 20.08 С 2 50 км 3/3 1000 м
[Cu hum]
+14.8 -2.2 31 +15 +23 1017.3 816.1
06 20.08 Ю 4 50 км 5/5 1000 м
[Cu med, cong]
+18.7 -2.8 23 +19 +24 1014.3 816.0
09 20.08 Ю 3 50 км 4/4 1000 м
[Cu med, cong]
+19.5 -3.4 21 +20 +23 1012.2 814.9
12 20.08 Ю 4 50 км 5/3 600 м
[Sc Ac lent Ci fib]
+17.9 -4.1 22 +18 +18 1013.6 815.0 +20.3
15 20.08 ЮВ 2 н/о 5/0 2000 м
[Ac lent Ci fib]
+13.3 -1.4 36 +13 +13 1018.8 816.3
18 20.08 штиль 0 н/о 9/0 2000 м
[Ac As]
+9.5 +2.6 62 +9 +9 1022.8 817.1
21 20.08 С 1 н/о 9/0 2000 м
[Ac und Cs]
+7.3 +2.4 71 +7 +7 1023.8 816.5
00 21.08 С 3 50 км 8/3 600 м
[Sc Ac und Ci fib]
+10.5 +1.8 55 +9 +9 1021.0 816.4 +7.3
03 21.08 Ю 2 50 км 5/1 1000 м
[Cu hum Ac trans]
+17.4 +1.4 34 +18 +25 1014.9 815.7
06 21.08 ЮЗ 3 50 км 5/5 1000 м
[Cu med, cong]
+22.6 -1.5 20 +21 +27 комфорт 1009.1 814.2

 

Местоположение метеостанции Баянхонгор (Монголия): широта 46.13 долгота 100.68 высота над уровнем моря 1859 м.

В архиве по умолчанию представлена погода в Баянхонгоре за последнюю неделю. Архивные данные за месяц целиком и за предыдущие месяцы, начиная с января 2011 года, Вы можете получить, выбрав интересующий диапазон дат из раскрывающегося списка и нажав кнопку "Ввод!".


*Определитесь, кто Вы:
робот инопланетянин человек

Внимание! Время в таблицах - всемирное. Для получения местного времени необходимо прибавить поправку, которая равна 8 ч.

Смотрите также архив погоды в соседних городах и на ближайших метеорологических станциях:

Погода в Галууте (Монголия) (76 км)
Погода в Цэцэрлэге (Монголия) (158 км)
Погода в Арвайхээре (Монголия) (162 км)
Погода в Хужирте (Монголия) (181 км)
Погода в Богде (Монголия) (201 км)
Погода в Баянбулаге (Монголия) (214 км)
Погода в Амарбуйантайане (Монголия) (228 км)
Погода в Тариате (Монголия) (233 км)
Погода в Эрдэни (Монголия) (251 км)
Погода в Бат Олжий Вунд (Монголия) (256 км)

Пояснения к столбцам:

Ветер - указаны скорость ветра в м/с - средняя за 10 мин, порывы в срок и между сроками (в фигурных скобках) и направление, откуда дует ветер: С - северный, СВ - северо-восточный, В - восточный, ЮВ - юго-восточный, Ю - южный, ЮЗ - юго-западный, З - западный, СЗ - северо-западный.
Видимость - горизонтальная дальность видимости в метрах или километрах. При видимости от 1 до 10 км при отсутствии осадков обычно наблюдается дымка, при ухудшении видимости до 1 км и менее - туман. В сухую погоду видимость может ухудшаться дымом, пылью или мглою.
Явления - указаны атмосферные явления, наблюдавшиеся в срок или в последний час перед сроком; фигурными скобками обозначены явления, наблюдавшиеся между сроками (за 1-3 часа до срока); квадратными скобками обозначены град или гололедные отложения с указанием их диаметра в мм.
Облачность - указаны через наклонную черту общая и нижняя облачность в баллах и высота нижней границы облаков в метрах; квадратными скобками обозначены формы облаков: Ci - перистые, Cs - перисто-слоистые, Cc - перисто-кучевые, Ac - высококучевые, As - высокослоистые, Sc - слоисто-кучевые, Ns - слоисто-дождевые, Cu - кучевые, Cb - кучево-дождевые. Подробнее классификацию облаков см. в Атласе облаков (PDF).
T - Температура воздуха - температура, измеренная на высоте 2 м над землей.
Td - Температура точки росы - температура, при понижении до которой содержащийся в воздухе водяной пар достигнет насыщения.
f - Относительная влажность воздуха - влажноcть воздуха, измеренная на высоте 2 м над землей.
Te - Эффективная температура - температура, которую ощущает одетый по сезону человек в тени. Характеристика душности погоды. При расчете учитывается влияние влажности воздуха и скорости ветра на теплоощущения человека.
Tes - Эффективная температура на солнце - температура, которую ощущает человек, с поправкой на солнечный нагрев. Характеристика знойности погоды. Зависит от высоты солнца над горизонтом, облачности и скорости ветра. Ночью, в пасмурную погоду, а также при ветре 12 м/с и более поправка равна нулю.
P - Атмосферное давление - приведенное к уровню моря атмосферное давление.
Po - Атмосферное давление - измеренное на уровне метеостанции атмосферное давление.
Tmin - Минимальная температура - минимум температуры воздуха на высоте 2 м над землей.
Tmax - Максимальная температура - максимум температуры воздуха на высоте 2 м над землей.
R - Количество осадков - Количество выпавших осадков за период времени, мм. При наведении курсора мыши на число - период времени, за который выпало указанное количество осадков.
R24 - Количество осадков - Количество выпавших осадков за 24 часа, мм.
S - Снежный покров - Высота снежного покрова, см. При наведении курсора мыши на число - состояние снежного покрова и степень покрытия местности в баллах.